Content
SEND FEEDBACK

Daily
Averages
Monthly
Summary
Switzerland

GENEVA, SWITZERLAND


Home > Europe > Switzerland
Elevation: 1364 feet     Latitude: 46 15N     Longitude: 006 08E

WEATHER
 
SELECT A DAY
Number of Records: 306,006;   Date Range: 7/1/96 - 8/30/14
 
SHARE

PRINT THIS DATA

[ ← Previous Day ]
WEATHER ALMANAC - JANUARY 20, 2014
[ Next Day → ]
[ °C ]   °F
Weather ElementAverageHighLow
Temperature39.7 °F42 °F (11:00 am)37.4 °F (9:20 pm)
Dewpoint37.4 °F39.2 °F (8:20 am)35.6 °F (9:20 pm)
Humidity90.1 %100 % (8:20 am)75 % (3:00 pm)
Barometer29.66 in29.86 in (11:00 pm)29.50 in (12:20 am)
Wind Speed4.9 mph12.7 mph (12:00 pm)
Weather ElementAverage
Visibility5.3 mi
Wind DirectionESE (120.6 °)

Weather ElementTotal
Precipitation---
Heating Degree Days25.3 (Base 65)
Averaged from 70 records on January 20, 2014
WEATHER CONDITIONS BREAKOUT
WIND DIRECTION BREAKOUT
WEATHER BY HOUR - JANUARY 20, 2014
[ °C ]   °F
Local TimeTemperatureDewpointHumidityBarometerVisibilityWind DirectionWind SpeedGust SpeedPrecipitationEventsConditions
12:20 AM39.2 °F37.4 °F93 %29.50 in3.1 miENE (70°)1.2 mphOvercast
12:50 AM39.2 °F37.4 °F93 %29.50 in3.1 miESE (110°)3.5 mphOvercast
1:00 AM39.0 °F36.0 °F86 %29.56 in3.0 miESE (110°)3.5 mphMist
1:20 AM39.2 °F37.4 °F93 %29.50 in2.8 miVariable2.3 mphOvercast
1:50 AM39.2 °F37.4 °F93 %29.50 in2.8 miENE (70°)1.2 mphOvercast
2:00 AM39.0 °F36.0 °F86 %29.56 inNE (50°)2.3 mph
2:50 AM39.2 °F37.4 °F93 %29.53 in2.8 miNorth (10°)1.2 mphOvercast
3:00 AM39.0 °F36.0 °F86 %29.57 inNorth (10°)2.3 mph
3:20 AM39.2 °F37.4 °F93 %29.53 in2.8 miENE (60°)2.3 mphOvercast
3:50 AM39.2 °F37.4 °F93 %29.53 in2.8 miCalmOvercast
4:00 AM39.0 °F36.0 °F86 %29.58 in3.0 miNE (40°)1.2 mphMist
4:20 AM39.2 °F37.4 °F93 %29.53 in2.8 miEast (80°)1.2 mphMostly Cloudy
4:50 AM39.2 °F37.4 °F93 %29.53 in2.8 miCalmRainLight Rain
5:00 AM39.0 °F36.0 °F87 %29.58 inENE (70°)1.2 mph
5:20 AM39.2 °F37.4 °F93 %29.53 in2.5 miCalmRainLight Rain
5:50 AM39.2 °F37.4 °F93 %29.53 in2.8 miCalmOvercast
6:00 AM39.0 °F37.0 °F89 %29.58 inNNE (20°)1.2 mph
6:20 AM39.2 °F37.4 °F93 %29.53 in3.1 miCalmMostly Cloudy
6:50 AM39.2 °F37.4 °F93 %29.53 in3.1 miCalmLight Drizzle
7:00 AM39.0 °F37.0 °F89 %29.60 in3.0 miNNE (20°)1.2 mphRainLight Drizzle
7:20 AM39.2 °F37.4 °F93 %29.56 in3.1 miCalmLight Drizzle
7:50 AM39.2 °F37.4 °F93 %29.56 inCalmRainLight Rain
8:00 AM40.0 °F37.0 °F87 %29.62 inNorth (10°)1.2 mph
8:20 AM39.2 °F39.2 °F100 %29.59 in2.5 miCalmRainLight Rain
8:50 AM39.2 °F39.2 °F100 %29.59 inCalmRainLight Rain
9:00 AM40.0 °F38.0 °F88 %29.64 inNorth (10°)1.2 mph
9:20 AM39.2 °F39.2 °F100 %29.59 in2.8 miCalmMostly Cloudy
9:50 AM39.2 °F39.2 °F100 %29.62 in5.0 miVariable2.3 mphMostly Cloudy
10:00 AM41.0 °F38.0 °F85 %29.65 in6.0 miSSW (200°)8.1 mphMist
10:20 AM41.0 °F39.2 °F93 %29.62 in6.2 miSSW (210°)8.1 mphMostly Cloudy
10:50 AM41.0 °F39.2 °F93 %29.62 in6.2 miSouth (190°)8.1 mphMostly Cloudy
11:00 AM42.0 °F37.0 °F78 %29.68 inSSW (200°)9.2 mph
11:20 AM41.0 °F39.2 °F93 %29.65 in6.2 miSSW (200°)10.4 mphRainLight Rain
11:50 AM41.0 °F39.2 °F93 %29.65 in6.2 miSSW (210°)11.5 mphRainLight Rain
12:00 PM41.0 °F38.0 °F84 %29.69 inSSW (200°)12.7 mph
12:20 PM41.0 °F39.2 °F93 %29.65 in6.2 miSSW (210°)11.5 mphRainLight Rain
12:50 PM41.0 °F39.2 °F93 %29.65 in6.2 miSSW (210°)11.5 mphRainLight Rain
1:00 PM41.0 °F38.0 °F85 %29.69 in10.0 miSSW (200°)11.5 mphRainLight Rain
1:20 PM41.0 °F39.2 °F93 %29.65 in6.2 miSSW (210°)8.1 mphMostly Cloudy
1:50 PM41.0 °F39.2 °F93 %29.65 in6.2 miSSW (200°)8.1 mphMostly Cloudy
2:00 PM42.0 °F37.0 °F77 %29.70 inSSW (200°)9.2 mph
2:20 PM41.0 °F39.2 °F93 %29.65 in6.2 miSSW (200°)9.2 mphRainLight Rain
2:50 PM41.0 °F37.4 °F87 %29.65 in6.2 miSouth (190°)10.4 mphRainLight Rain
3:00 PM42.0 °F37.0 °F75 %29.71 inSouth (190°)10.4 mph
3:20 PM41.0 °F37.4 °F87 %29.68 in6.2 miSouth (190°)9.2 mphRainLight Rain
3:50 PM41.0 °F37.4 °F87 %29.68 in6.2 miSSW (200°)9.2 mphRainLight Rain
4:00 PM42.0 °F37.0 °F75 %29.74 in19.0 miSSW (200°)8.1 mphRainLight Rain
4:20 PM41.0 °F37.4 °F87 %29.71 in6.2 miSouth (190°)8.1 mphRainLight Rain
4:50 PM41.0 °F37.4 °F87 %29.71 in6.2 miSouth (190°)8.1 mphRainLight Rain
5:00 PM41.0 °F37.0 °F80 %29.76 inSSW (200°)10.4 mph
5:20 PM41.0 °F37.4 °F87 %29.71 in6.2 miSSW (200°)10.4 mphRainLight Rain
5:50 PM41.0 °F37.4 °F87 %29.74 in6.2 miSSW (200°)9.2 mphRainLight Rain
6:00 PM40.0 °F36.0 °F82 %29.78 inSouth (190°)8.1 mph
6:20 PM39.2 °F37.4 °F93 %29.74 in6.2 miSouth (190°)8.1 mphRainLight Rain
6:50 PM39.2 °F37.4 °F93 %29.77 in6.2 miSouth (190°)8.1 mphRainLight Rain
7:00 PM40.0 °F37.0 °F84 %29.81 in7.0 miSouth (170°)5.8 mphRainLight Rain
7:20 PM39.2 °F37.4 °F93 %29.77 in6.2 miSouth (170°)5.8 mphRainLight Rain
7:50 PM39.2 °F37.4 °F93 %29.77 in6.2 miSouth (180°)5.8 mphRainLight Rain
8:00 PM39.0 °F37.0 °F88 %29.82 inSouth (180°)5.8 mph
8:20 PM39.2 °F37.4 °F93 %29.77 in6.2 miSouth (180°)4.6 mphRainLight Rain
8:50 PM39.2 °F37.4 °F93 %29.80 in6.2 miSSW (200°)4.6 mphRainLight Rain
9:00 PM39.0 °F38.0 °F92 %29.84 inSSW (200°)5.8 mph
9:20 PM37.4 °F35.6 °F93 %29.80 in6.2 miVariable2.3 mphRainLight Rain
9:50 PM37.4 °F35.6 °F93 %29.80 in6.2 miVariable2.3 mphMostly Cloudy
10:00 PM38.0 °F36.0 °F90 %29.85 in7.0 miWest (270°)3.5 mphRainLight Rain
10:20 PM37.4 °F35.6 °F93 %29.80 in6.2 miSW (230°)3.5 mphMostly Cloudy
10:50 PM37.4 °F35.6 °F93 %29.80 in6.2 miVariable2.3 mphMostly Cloudy
11:00 PM38.0 °F36.0 °F90 %29.86 inWNW (290°)3.5 mph
11:20 PM37.4 °F35.6 °F93 %29.80 in6.2 miVariable2.3 mphMostly Cloudy
11:50 PM37.4 °F35.6 °F93 %29.83 in6.2 miWest (270°)1.2 mphMostly Cloudy
Hourly data recorded from LSGG, located miles away from Geneva, Switzerland







STORIES FROM OUR PARTNERS